TimeMDT,TemperatureF,Dew PointF,Humidity,Sea Level PressureIn,VisibilityMPH,Wind Direction,Wind SpeedMPH,Gust SpeedMPH,PrecipitationIn,Events,Conditions,WindDirDegrees,DateUTC
12:55 AM,33.1,9.0,37,30.04,10.0,Calm,Calm,-,N/A,,Clear,0,2012-10-08 06:55:00
1:55 AM,32.0,10.0,40,30.04,10.0,Calm,Calm,-,N/A,,Clear,0,2012-10-08 07:55:00
2:55 AM,30.9,12.0,46,30.04,10.0,Calm,Calm,-,N/A,,Clear,0,2012-10-08 08:55:00
3:55 AM,30.0,12.0,47,30.03,2.5,Calm,Calm,-,N/A,,Haze,0,2012-10-08 09:55:00
4:12 AM,32.0,10.4,41,30.06,6.0,Calm,Calm,-,N/A,,Haze,0,2012-10-08 10:12:00
4:55 AM,28.0,10.0,47,30.02,10.0,Calm,Calm,-,N/A,,Clear,0,2012-10-08 10:55:00
5:55 AM,28.0,8.1,43,30.02,10.0,South,3.5,-,N/A,,Clear,190,2012-10-08 11:55:00
6:55 AM,24.1,10.0,55,30.08,10.0,Calm,Calm,-,N/A,,Clear,0,2012-10-08 12:55:00
7:55 AM,25.0,8.1,49,30.09,10.0,Calm,Calm,-,N/A,,Clear,0,2012-10-08 13:55:00
8:55 AM,33.1,12.0,42,30.08,10.0,Calm,Calm,-,N/A,,Clear,0,2012-10-08 14:55:00
9:55 AM,37.0,14.0,39,30.07,10.0,Calm,Calm,-,N/A,,Clear,0,2012-10-08 15:55:00
10:55 AM,44.1,12.9,28,30.02,10.0,Calm,Calm,-,N/A,,Clear,0,2012-10-08 16:55:00
11:55 AM,48.9,15.1,26,29.98,10.0,Calm,Calm,-,N/A,,Clear,0,2012-10-08 17:55:00
12:55 PM,53.1,12.9,20,29.95,10.0,Variable,3.5,-,N/A,,Clear,0,2012-10-08 18:55:00
2:55 PM,63.0,10.0,13,29.86,10.0,NE,3.5,-,N/A,,Clear,40,2012-10-08 20:55:00
3:55 PM,64.9,10.0,12,29.83,10.0,SE,3.5,-,N/A,,Clear,130,2012-10-08 21:55:00
4:55 PM,66.0,15.1,14,29.82,10.0,Calm,Calm,-,N/A,,Clear,0,2012-10-08 22:55:00
5:55 PM,61.0,17.1,18,29.83,10.0,North,3.5,-,N/A,,Clear,350,2012-10-08 23:55:00
6:55 PM,60.1,10.0,14,29.86,10.0,NNW,10.4,-,N/A,,Clear,340,2012-10-09 00:55:00
8:55 PM,48.9,15.1,26,29.91,10.0,Calm,Calm,-,N/A,,Clear,0,2012-10-09 02:55:00
9:55 PM,43.0,10.9,27,29.95,10.0,West,4.6,-,N/A,,Clear,270,2012-10-09 03:55:00
10:55 PM,43.0,12.0,28,29.94,10.0,Calm,Calm,-,N/A,,Clear,0,2012-10-09 04:55:00
11:55 PM,42.1,10.9,28,29.94,10.0,Calm,Calm,-,N/A,,Clear,0,2012-10-09 05:55:00